Cordoba, Spain

9:46 PM CEST on August 17, 2017 (GMT +0200)
Cordoba

Weather History for LEBA - June, 2013

Change the Weather History Date:

Friday, June 14, 2013

  Actual Average Record
Temperature  
Mean Temperature 82 °F -  
Max Temperature 100 °F - - ()
Min Temperature 65 °F - - ()
Cooling Degree Days 18    
Growing Degree Days 32 (Base 50)    
Moisture  
Dew Point 54 °F    
Average Humidity 35    
Maximum Humidity 73    
Minimum Humidity 11    
Precipitation  
Precipitation 0.00 in 0.02 in - ()
Sea Level Pressure  
Sea Level Pressure 29.96 in    
Wind  
Wind Speed 2 mph ()    
Max Wind Speed 13 mph    
Max Gust Speed -    
Visibility 16.0 miles    
Events      
T = Trace of Precipitation, MM = Missing Value Source: Averaged Metar Reports

Daily Weather History Graph

Daily Weather History Graph

Search for Another Location

Airport or City:

Trip Planner

Search our weather history database for the weather conditions in past years. The results will help you decide how hot, cold, wet, or windy it might be!

Date:

Astronomy

Jun. 14, 2013 Rise Set
Actual Time 6:56 AM CEST 9:42 PM CEST
Civil Twilight 6:25 AM CEST 10:14 PM CEST
Nautical Twilight 5:46 AM CEST 10:53 PM CEST
Astronomical Twilight 5:01 AM CEST 11:37 PM CEST
Moon 12:13 PM CEST (6/14) 12:46 AM CEST (6/14)
Length of Visible Light 15h 48m
Length of Day
14h 46m
Waxing Crescent, 28% of the Moon is Illuminated
Jun 14
Waxing Crescent
Jun 16
First Quarter
Jun 23
Full
Jun 30
Last Quarter
Jul 8
New

Hourly Weather History & Observations

Time (CEST) Temp. Heat Index Dew Point Humidity Pressure Visibility Wind Dir Wind Speed Gust Speed Precip Events Conditions
2:00 AM 75 °F - 58 °F 44% 29.98 in - West 3.5 mph - -  
7:00 AM 66.2 °F - 57.2 °F 73% 29.98 in - SSW 1.2 mph - N/A   Clear
8:00 AM 69 °F - 59 °F 61% 30.01 in 16 mi Calm Calm - -  
8:00 AM 68.0 °F - 59.0 °F 73% 30.01 in - Calm Calm - N/A   Clear
9:00 AM 71.6 °F - 57.2 °F 60% 30.01 in - Calm Calm - N/A   Clear
9:18 AM 75.2 °F - 57.2 °F 53% 30.01 in - Calm Calm - N/A   Clear
10:00 AM 78.8 °F - 55.4 °F 44% 30.01 in - Calm Calm - N/A   Clear
10:18 AM 82.4 °F 81.4 °F 53.6 °F 37% 30.01 in - Calm Calm - N/A   Clear
11:00 AM 82.4 °F - 51.8 °F 35% 30.01 in - Calm Calm - N/A   Clear
11:32 AM 86.0 °F 84.5 °F 55.4 °F 35% 30.01 in - Calm Calm - N/A   Clear
12:00 PM 86.0 °F 84.2 °F 53.6 °F 33% 30.01 in - North 1.2 mph - N/A   Clear
1:00 PM 89.6 °F 87.3 °F 53.6 °F 29% 29.98 in - South 1.2 mph - N/A   Clear
2:00 PM 96 °F - 51 °F 13% 29.96 in 25 mi SE 2.3 mph - -  
2:00 PM 93.2 °F 90.8 °F 53.6 °F 26% 29.98 in - ENE 1.2 mph - N/A   Clear
3:00 PM 95.0 °F - 51.8 °F 23% 29.95 in - Variable 2.3 mph - N/A   Clear
3:37 PM 96.8 °F - 50.0 °F 20% 29.95 in - WSW 12.7 mph - N/A   Clear
4:00 PM 95.0 °F - 50.0 °F 22% 29.95 in - West 5.8 mph - N/A   Clear
5:00 PM 96.8 °F - 51.8 °F 22% 29.92 in - West 8.1 mph - N/A   Clear
6:00 PM 96.8 °F - 50.0 °F 20% 29.89 in - Variable 2.3 mph - N/A   Clear
7:00 PM 96.8 °F - 48.2 °F 19% 29.89 in - West 10.4 mph - N/A   Clear
8:00 PM 98 °F - 48 °F 11% 29.88 in 25 mi West 10.4 mph - -  
8:00 PM 95.0 °F - 50.0 °F 22% 29.89 in - West 9.2 mph - N/A   Clear
9:00 PM 91.4 °F 89.1 °F 53.6 °F 28% 29.89 in - SW 4.6 mph - N/A   Clear
10:00 PM 82.4 °F 81.7 °F 55.4 °F 39% 29.92 in - WSW 3.5 mph - N/A   Clear
11:00 PM 80.6 °F 80.5 °F 55.4 °F 42% 29.95 in - WSW 3.5 mph - N/A   Clear